User: anonymous
Location: Weston
(26.1283°N, 80.4075°W)
Time: 23:20:31
(UTC-04:00)
Language:

H-2A R/B - Orbit

View from above orbital plane
View from above orbital plane
View from above satellite
View from above satellite

Ground track
Ground track

The orbit data is extracted from the following two-line orbital elements,

1 26899U 01038B   14210.15054339 -.00000323  00000-0  31421-3 0   202
2 26899 028.0273 130.5687 7135485 214.8889 351.0610 02.43732545110554
Epoch (UTC): 29 July 2014 03:36:46
Eccentricity: 0.7135485
inclination: 28.0273°
perigee height: 303 km
apogee height: 33587 km
right ascension of ascending node: 130.5687°
argument of perigee: 214.8889°
revolutions per day: 2.43732545
mean anomaly at epoch: 351.0610°
orbit number at epoch: 11055

The dashed part of the orbit path shows where the satellite is in the earth's shadow,  

DLR